Tracking 33404 objects as of 6-Mar-2026
HD Live streaming from Space Station
objects crossing your sky now

STARLINK-36558

Track STARLINK-36558 now!
10-day predictions
STARLINK-36558 is classified as:


NORAD ID: 67499
Int'l Code: 2026-012G
Perigee: 490.1 km
Apogee: 490.2 km
Inclination: 43.0 °
Period: 94.3 minutes
Semi major axis: 6861 km
RCS: Unknown
Launch date: January 18, 2026
Source: United States (US)
Launch site: AIR FORCE EASTERN TEST RANGE (AFETR)
Your satellite tracking list
Your tracking list is empty




NASA's NSSDC Master Catalog

Two Line Element Set (TLE):
1 67499U 26012G   26065.11137422  .00024024  00000-0  87956-3 0  9996
2 67499  42.9932 334.6973 0000080 182.9875 177.0976 15.27584801  7217
Source of the keplerian elements: AFSPC